Flag for Germany Weather past 2 weeks in Backnang, Baden-Württemberg, Germany

Now
54 °F

Clear.


Feels Like: 53 °F
Forecast: 35 / 61 °F
Wind: 5 mph from Northeast

Location: Oehringen

Current Time: Apr 19, 2015 at 9:30:09 PM

Latest Report: Apr 19, 2015 at 9:00 PM


Visibility: 25 mi

Pressure: 30.14 "Hg

Humidity: 39%

Dew point: 29 °F

Location of BacknangLocation

Historic Weather in Backnang — Graph

°F

Backnang temperature yesterday

Maximum temperature yesterday: 55 °F (at 6:00 PM)
Minimum temperature yesterday: 35 °F (at 7:00 AM)
Average temperature yesterday: 47 °F

Past Weeks' High & Low Weather Summary

 TemperatureHumidityPressure
High78 °F (Apr 15, 5:00 PM)94% (Apr 12, 8:00 AM)30.66 "Hg (Apr 12, 8:00 AM)
Low28 °F (Apr 7, 7:00 AM)19% (Apr 15, 7:00 PM)29.86 "Hg (Apr 16, 8:00 PM)
Average51 °F59%30.26 "Hg
* Reported Apr 4 8:00 PM — Apr 19 8:00 PM, Backnang, Weather by CustomWeather, © 2015

Note: Actual official high and low records may vary slightly from our data, if they occured in-between our weather recording intervals... More about our weather records

Advertising

Backnang weather history for previous 24 hours

 ConditionsComfort  
Time TempWeatherWind HumidityBarometerVisibility
8:00 PM
Sun, Apr 19
58 °FSunny.3 mph35%30.11 "Hg28 mi
7:00 PM62 °FSunny.3 mph30%30.09 "Hg28 mi
6:00 PM62 °FSunny.5 mph26%30.08 "Hg22 mi
5:00 PM62 °FSunny.5 mph28%30.08 "Hg28 mi
4:00 PM62 °FPartly sunny.5 mph28%30.09 "Hg19 mi
3:00 PM61 °FSunny.5 mph30%30.10 "Hg25 mi
2:00 PM60 °FSunny.6 mph31%30.11 "Hg25 mi
1:00 PM58 °FSunny.6 mph35%30.13 "Hg12 mi
12:00 PM54 °FSunny.6 mph34%30.14 "Hg34 mi
11:00 AM52 °FSunny.7 mph37%30.16 "Hg22 mi
10:00 AM49 °FScattered clouds.5 mph43%30.16 "Hg19 mi
9:00 AM45 °FSunny.5 mph52%30.18 "Hg17 mi
8:00 AM40 °FSunny.3 mph59%30.19 "Hg19 mi
7:00 AM36 °FSunny.2 mph70%30.20 "Hg17 mi
6:00 AM35 °FClear.2 mph71%30.20 "Hg17 mi
5:00 AM36 °FClear.3 mph70%30.21 "Hg16 mi
4:00 AM37 °FClear.2 mph69%30.22 "Hg17 mi
3:00 AM37 °FClear.1 mph69%30.24 "Hg17 mi
2:00 AM38 °FClear.1 mph68%30.26 "Hg19 mi
1:00 AM39 °FClear.2 mph66%30.26 "Hg22 mi
12:00 AM40 °FClear.2 mph64%30.26 "Hg22 mi
11:00 PM
Sat, Apr 18
41 °FClear.2 mph62%30.27 "Hg28 mi
10:00 PM44 °FClear.3 mph55%30.26 "Hg28 mi
9:00 PM47 °FClear.3 mph50%30.24 "Hg31 mi
Weather by CustomWeather, © 2015

See weather overviewHow to use our weather pages